Location: Cambridge (historical)
(38.6883°N, 119.0140°W)
Time: 17:49:11
(UTC+00:00)

VELOX 1 - Pass Details

Date: 26 September 2021
Orbit: 627 x 642 km, 98.3° (Epoch: 18 October)

Event Time Altitude Azimuth Distance (km) Brightness Sun altitude
Exits shadow 11:12:55 28° 16° (NNE) 1,180 ? -30.2°
Drops below altitude 10° 11:15:13 10° 359° (N) 2,014 ? -29.8°
Sets 11:17:28 0° 354° (N) 2,924 ? -29.4°
